Погода Миллерово

Погода Миллерово : погода сейчас, прогноз погоды и архив. Всё, что Вы хотите узнать о погоде Миллерово!

Хотите узнать прогноз погоды Миллерово? Тогда Вам сюда: Погода Миллерово

Поиск расширенной информации на нашем сайте:

Другие новости

Новости СМИ2

Главная страница сайта

Новости сайта

02.10.2013

Напоминаем, что на нашем новом сайте вы можете получить высокодетализированные прогнозы погоды по пунктам России, СНГ и мира (включающие важные для авиации метеовеличины, такие как направление и скорость ветра, видимость, явления погоды, количество и форма облачности, нижняя и верхняя граница облачности), а также ознакомиться с разнообразными материалами по авиационной метеорологии и подборкой полезных ссылок на эту тему.

Сайт Метеоцентр.Азия посвящён разработке технологий оптимизации авиаметеорологического обслуживания, включая проектирование и перспективное создание нескольких автоматизированных авиаметеорологических систем:
- система выпуска высокодетальных прогностических карт явлений погоды для нижнего воздушного пространства по России и ближнему зарубежью;
- система верификации прогнозов TAF (выпускаемых синоптиками официальных АМСГ РФ и ближнего зарубежья) и AUTOTAF (выпускаемых сайтом Метеоцентр.Азия) - выявление ошибок, онлайн-сопоставление с фактической погодой METAR, автоматическое внесение коррективов в прогнозы при резком отклонении фактической погоды от прогноза, подсчёт оправдываемости прогнозов по элементам и в целом;
- система обработки, анализа и отображения авиаметеорологической информации для применения провайдерами метеорологической информации.

Рекомендуем: Самая детальная информация университеты Кургана на сайте.

Погода Миллерово - сегодня

Время (UTC), дата Ветер
(°,м/с) 
Видим.   Явления Облачность Т
(°С)
Тd
(°С)
f(%) Тe
(°С)
Pmin
(гПа)
dP
(гПа)
Po
(мм)
O2
(г/м3)
Тmin Tmax R s Состояние
почвы
09 25.06.17 240 (ЮЗ) 10 км    9/5 600 м средняя, верхняя 
[Cu med, cong|Ac cast|Ci sp]
+23.1 +10.6 45 +25  1012.3  0.1  746  275           
12 25.06.17 230 (ЮЗ) 10 км    10/6 600 м кучево-дожд., средняя 
[Cb calv|Ac lent]
+22.1 +12.4 54 +27  1012.5  0.1  746  276           
15 25.06.17 220 (ЮЗ) 10 км    8/6 600 м средняя 
[Cu med, cong|Ac trans]
+23.4 +12.8 51 +29  1012  -0.4  746  274    +24       
18 25.06.17 200 (Ю) 10 км    4/4 600 м 
[Cu med, cong]
+20.6 +14.7 69 +29  1013.2  1.1  746  277           
21 25.06.17 170 (Ю) 10 км    ясно 
+17 +15.7 92 +28  1014.2  0.7  747  280           
00 26.06.17 тихо ()   2000 м  дымка  ясно 
+14.7 +14 96 +22  1014.5  0.2  747  283           
03 26.06.17 тихо ()   4000 м  в посл. час туман  ясно 
+17.4 +17.1 98 +30  1015.4  748  279  +13.5        сухая 
06 26.06.17 250 (З) 10 км    1/0 верхняя 
[Ci fib]
+24.2 +14 53 +31  1015.1  0.1  748  274           
09 26.06.17 210 (ЮЗ) 10 км    3/3 1000 м 
[Cu hum]
+27.1 +12.3 40 +32  1014.7  -0.2  748  272           
12 26.06.17 250 (З) 10 км    8/3 1000 м верхняя 
[Cu hum|Ci fib]
+29 +11.5 34 +32  1013.6  -1  747  270           
15 26.06.17 210 (ЮЗ) 10 км    1/1 1000 м 
[Cu hum]
+29 +10.4 31 +31  1012.5  -0.9  746  270    +29.6       
18 26.06.17 150 (ЮВ) 10 км    ясно 
+23.3 +13.3 53 +29  1012.5  -0.5  746  274           
21 26.06.17 170 (Ю) 10 км    ясно 
+20.3 +14.7 70 +29  1013.2  0.5  746  277           
00 27.06.17 180 (Ю) 10 км    ясно 
+16.7 +15.3 91 +27  1013.4  746  280           
03 27.06.17 200 (Ю) 10 км    ясно 
+19.3 +15.2 77 +30  1013.3  746  278  +16.4        сухая 
06 27.06.17 200 (Ю) 10 км    ясно 
+26.3 +16 53 +37  1012.3  -0.5  746  271           
09 27.06.17 210 (ЮЗ) 10 км    1/1 1000 м 
[Cu hum]
+29.7 +13 36 +35  1012.1  -0.1  746  269           
12 27.06.17 190 (Ю) 10 км    3/3 1000 м 
[Cu hum]
+30.9 +12.7 33 +36  1010.7  -1.3  745  267           
15 27.06.17 190 (Ю) 10 км    3/3 1000 м 
[Cu hum]
+30.1 +12.9 35 +36  1010.2  -0.6  745  268    +31.5       
18 27.06.17 120 (ЮВ) 10 км    ясно 
+23.5 +16.1 63 +34  1010.7  0.2  745  273           
21 27.06.17 тихо ()   10 км    6/0 средняя 
[Ac trans]
+20.4 +15.5 73 +30  1010.9  745  276           
00 28.06.17 тихо ()   10 км    4/0 средняя 
[Ac trans]
+18.7 +16.2 85 +30  1011.3  0.3  745  277           
03 28.06.17 080 (В) 10 км    1/0 верхняя 
[Ci fib]
+20.6 +17.2 81 +34  1011.3  0.2  745  275  +16.5        сухая 
06 28.06.17 060 (СВ) 10 км    3/0 средняя 
[Ac trans]
+26 +17.4 59 +39  1011.5  0.5  745  270           
09 28.06.17 160 (Ю) 10 км    3/3 1000 м 
[Cu med, cong]
+30.1 +16.9 45 +42  1011.2  -0.1  745  267           
Время (UTC), дата Ветер
(°,м/с) 
Видим.   Явления Облачность Т
(°С)
Тd
(°С)
f(%) Тe
(°С)
Pmin
(гПа)
dP
(гПа)
Po
(мм)
O2
(г/м3)
Тmin Tmax R s Состояние
почвы

Для получения пояснительной информации подведите курсор к названию столбца.

ПОГОДА Миллерово - архив

Всё, что Вы хотите узнать о погоде Миллерово - удобно и подробно!

Выберите нужную дату (начиная с 1 января 2015* года) и нажмите кнопку "Найти".
Будут отображены архивные сводки погоды по пункту Миллерово, начиная с указанной даты.


Отображать данные в формате CSV (для использования в таблицах Excel)


Внимание! Наш архив погоды предназначен исключительно для личного некоммерческого использования в познавательных целях. Если Вам необходимы официальные справки о состоянии погоды (для производственных, юридических, коммерческих и т.п. целей), обращайтесь в органы Росгидромета.

*Примечание: данная дата относится к архиву по метеостанциям СССР (Россия, СНГ, Балтия).
Архив по метеостанциям Зарубежной Европы и Азии (кроме Китая) хранится 10 дней, по другим регионам земного шара (Китай, Африка, Америка, Австралия, Океания) - 1 день.

Миллерово - район местоположения метеостанции


Название, широта, долгота, высота метеостанции:
Миллерово 48.9°ш. 40.4°д. 155 м над ур. моря [Российская Федерация]

Дополнительная информация

В oтличие oт бoльшинства пoгoдных сайтoв мы публикуем пoдрoбную метеoинфoрмацию в детальнoм прoфессиoнальнoм фoрмате.

Характеристики температуры и влажнoсти вoздуха измеряются на высoте 2 м в тени вдали oт зданий и деревьев.
Скoрoсть ветра измеряется на высoте 10 м (на урoвне рoста челoвека скoрoсть ветра ниже в 1.5-2 раза). Если метеoстанция нахoдится в гoрoде или в лесу, тo скoрoсть ветра занижена на 2-4 м/с пo сравнению с oткрытым местoм. Скoрoсть ветра над акватoриями крупных рек и oзёр, а также на вершинах хoлмoв на 2-5 м/с выше, чем в oбычных услoвиях.
Атмoсфернoе давление в разных тoчках местнoсти мoжет значительнo oтличаться oт давления на метеoстанции, в зависимoсти oт услoвий рельефа (при пoдъёме на 10 м давление пoнижается примернo на 1 мм рт.ст.).